Regional Weather Roundup
Issued by NWS Goodland, KS

Home | Current Version | Previous Version | Text Only | Print | Product List | Glossary Off
Versions: 1 2 3 4 5 6 7 8 9 10 11 12 13 14 15 16 17 18 19 20 21 22 23 24 25 26 27 28 29 30 31 32 33 34 35 36 37 38 39 40 41 42 43 44 45 46 47 48 49 50

637
ASUS43 KGLD 270308
RWRGLD

GOODLAND FORECAST AREA HOURLY WEATHER ROUNDUP
NATIONAL WEATHER SERVICE GOODLAND KS
900 PM MDT FRI AUG 26 2016

...OFFICIAL OBSERVATIONS...

CITY           SKY/WX    TMP DP  RH WIND       PRES   REMARKS
GOODLAND KS    CLOUDY    55  51  86 E5        30.08R
HILL CITY KS   CLOUDY    66  59  78 NW18G25   30.08R
IMPERIAL NEB   CLOUDY    57  55  93 S5        30.06S
MCCOOK NEB     CLOUDY    60  55  83 E13       30.05R
AKRON CO       PTCLDY    56  53  90 SE10      30.10S
BURLINGTON CO  CLEAR     60  52  74 NE5       30.10R
LIMON CO       CLEAR     57  50  77 E13       30.14S
$$

...UNOFFICIAL OBSERVATIONS...

CITY           SKY/WX    TMP DP  RH WIND       PRES   REMARKS
LENORA KS        N/A     55  32  41 MISG        N/A
SHARON SPRINGS   N/A     63  57  80 E8          N/A
TRENTON NEB      N/A     55  32  41 MISG        N/A
KIT CARSON CO    N/A     62  53  72 MISG        N/A
YUMA CO          N/A     55  53  92 CALM        N/A
$$




USA.gov is the U.S. government's official web portal to all federal, state and local government web resources and services.